Airport Information

KTMK - Tillamook Airport

KTMK 251155Z AUTO 16003KT 10SM SCT120 06/03 A2991 RMK AO2


  • General Information

  • Coordinates: N 45°25'5"/ W 123°48'51"
  • Location: N/A
  • Surveyed Elevation: 36 MSL

Operations

Flow Name Active Runways Conditions

Green background denotes normal operations.


Common Frequencies

Callsign Frequency Position Name

More at the Document Center


Charts